"Pseudo-MPEC" for P12oEF0

Created 2026 Jul 26 18:35:10 UT using Find_Orb

Click here for an explanation of pseudo-MPECs

 
 Astrometry: 
     P12oEF0*0C2026 07 25.57908823 56 39.947-04 17 20.28   ~7PJZ 20.96wXNEOCPF51
     P12oEF0 0C2026 07 25.58972123 56 41.424-04 17 30.51   ~7PJZ 21.43wXNEOCPF51
     P12oEF0 0C2026 07 25.60053523 56 42.907-04 17 40.74   ~7PJZ 21.56wXNEOCPF51
     P12oEF0 0C2026 07 25.61115523 56 44.372-04 17 50.83   ~7PJZ 21.24wXNEOCPF51
     P12oEF0 KB2026 07 26.38326423 58 38.266-04 30 20.74   ~7QAK 21.1 GXNEOCP734
     P12oEF0 KB2026 07 26.40991923 58 41.801-04 30 44.64   ~7QAK 21.4 GXNEOCP734
     P12oEF0 0C2026 07 26.49813123 58 55.490-04 32 04.64   ~7QDZ 21.33wXNEOCPF52
     P12oEF0 0C2026 07 26.50773023 58 56.781-04 32 13.98   ~7QDZ 21.25wXNEOCPF52
     P12oEF0 0C2026 07 26.51730823 58 58.092-04 32 23.47   ~7QDZ 21.32wXNEOCPF52
     P12oEF0 0C2026 07 26.52698123 58 59.397-04 32 32.82   ~7QDZ 21.36wXNEOCPF52

Station data:
(734) Farpoint Observatory, Eskridge  (N38.890239 W96.002420)  US/Kansas.
   Observer G. Hug. 0.69-m reflector + CCD.
(F51) Pan-STARRS 1, Haleakala  (N20.707234 W156.255910)  US/Hawaii.
   Observers J. Herman, T. Lowe, P. Minguez, A. Schultz, I. Smith. Measurers
   K. Chambers, T. de Boer, J. Fairlamb, H. Gao, M. Huber, C.-C. Lin, E.
   Magnier, Y. Ramanjooloo, R. Wainscoat, R. Weryk. 1.8-m Ritchey-Chrétien +
   CCD.
(F52) Pan-STARRS 2, Haleakala  (N20.707382 W156.255910)  US/Hawaii.
   Observers J. Herman, T. Lowe, P. Minguez, A. Schultz, I. Smith. Measurers
   K. Chambers, T. de Boer, J. Fairlamb, H. Gao, M. Huber, C.-C. Lin, E.
   Magnier, Y. Ramanjooloo, R. Wainscoat, R. Weryk. 1.8-m Ritchey-Chrétien +
   CCD.

Orbital elements:  P12oEF0
   Perihelion 2026 Jul 9.878678 +/- 3.71 TT = 21:05:17.7 (JD 2461231.378678)
Epoch 2026 Jul 26.0 TT = JDT 2461247.5   Earth MOID: 0.2112      AutoNEOCP
M   6.019354299 +/- 0.6             (J2000 ecliptic)
n   0.373378454 +/- 0.0605          Peri.  173.077701 +/- 3.4
a   1.910013982 +/- 0.206           Node   128.780016 +/- 0.47
e   0.35806296 +/- 0.072            Incl.    8.818815 +/- 0.36
P   2.640/964.151d         H 21.54  G  0.15   U 10.9
q 1.226108717 +/- 0.0126    Q 2.593919247 +/- 0.417
From 10 observations 2026 July 25-26 (22.7 hr); mean residual 0".44
Residuals in arcseconds: 
260725 F51  .14-  .06+    260726 734  .72+  .74-    260726 F52  .05+  .09-    
260725 F51  .07+  .06-    260726 734  .97-  1.3+    260726 F52  .04-  .04+    
260725 F51  .00   .01-    260726 F52  .14+  .06-    
260725 F51  .06+  .01-    260726 F52  .10-  .01+    

Ephemerides (geocentric):
Date (UTC) HH   RA             Dec           delta  r     elong  mag " sig PA
---- --------  ------------   ------------  ------ ------ -----  --- --------
2026 07 26 19  23 59 37.050   -04 36 40.71  .33044 1.2361 125.3 21.2 1.17 119
2026 07 26 20  23 59 43.057   -04 37 21.64  .33041 1.2362 125.3 21.2 1.27 117
2026 07 26 21  23 59 49.057   -04 38 02.61  .33037 1.2362 125.3 21.2 1.38 116
2026 07 26 22  23 59 55.053   -04 38 43.62  .33034 1.2363 125.3 21.2 1.50 115
2026 07 26 23  00 00 01.042   -04 39 24.68  .33030 1.2363 125.3 21.2 1.62 114
2026 07 27 00  00 00 07.027   -04 40 05.78  .33027 1.2364 125.4 21.2 1.74 113
2026 07 27 01  00 00 13.005   -04 40 46.93  .33024 1.2364 125.4 21.2 1.87 113
2026 07 27 02  00 00 18.978   -04 41 28.12  .33020 1.2365 125.4 21.2 2.01 112
2026 07 27 03  00 00 24.946   -04 42 09.35  .33017 1.2365 125.4 21.2 2.15 111
2026 07 27 04  00 00 30.907   -04 42 50.63  .33014 1.2366 125.4 21.2 2.29 111
2026 07 27 05  00 00 36.864   -04 43 31.95  .33010 1.2366 125.5 21.2 2.45 110
2026 07 27 06  00 00 42.814   -04 44 13.32  .33007 1.2367 125.5 21.2 2.60 110
2026 07 27 07  00 00 48.759   -04 44 54.73  .33004 1.2367 125.5 21.2 2.76 109
2026 07 27 08  00 00 54.698   -04 45 36.18  .33001 1.2368 125.5 21.2 2.93 109
2026 07 27 09  00 01 00.632   -04 46 17.67  .32997 1.2368 125.5 21.2 3.10 109
2026 07 27 10  00 01 06.560   -04 46 59.21  .32994 1.2369 125.6 21.2 3.27 108
2026 07 27 11  00 01 12.483   -04 47 40.80  .32991 1.2369 125.6 21.2 3.45 108
2026 07 27 12  00 01 18.399   -04 48 22.42  .32988 1.2370 125.6 21.2 3.63 108
2026 07 27 13  00 01 24.310   -04 49 04.09  .32984 1.2370 125.6 21.2 3.82 108
2026 07 27 14  00 01 30.216   -04 49 45.81  .32981 1.2371 125.6 21.2 4.02 108
2026 07 27 15  00 01 36.116   -04 50 27.56  .32978 1.2371 125.7 21.2 4.22 107
2026 07 27 16  00 01 42.010   -04 51 09.36  .32975 1.2372 125.7 21.2 4.42 107
2026 07 27 17  00 01 47.898   -04 51 51.21  .32972 1.2372 125.7 21.2 4.63 107
2026 07 27 18  00 01 53.781   -04 52 33.09  .32969 1.2373 125.7 21.2 4.84 107
2026 07 27 19  00 01 59.658   -04 53 15.02  .32965 1.2373 125.8 21.2 5.06 107
2026 07 27 20  00 02 05.529   -04 53 56.99  .32962 1.2374 125.8 21.2 5.28 107
2026 07 27 21  00 02 11.395   -04 54 39.01  .32959 1.2374 125.8 21.2 5.51 107
2026 07 27 22  00 02 17.255   -04 55 21.07  .32956 1.2375 125.8 21.2 5.74 106
2026 07 27 23  00 02 23.109   -04 56 03.17  .32953 1.2375 125.8 21.2 5.98 106
2026 07 28 00  00 02 28.958   -04 56 45.31  .32950 1.2376 125.9 21.2 6.22 106
2026 07 28 01  00 02 34.801   -04 57 27.50  .32947 1.2376 125.9 21.2 6.47 106
2026 07 28 02  00 02 40.638   -04 58 09.73  .32944 1.2377 125.9 21.2 6.72 106
2026 07 28 03  00 02 46.469   -04 58 52.00  .32941 1.2377 125.9 21.2 6.98 106
2026 07 28 04  00 02 52.295   -04 59 34.32  .32938 1.2378 125.9 21.2 7.24 106
2026 07 28 05  00 02 58.115   -05 00 16.67  .32935 1.2378 126.0 21.2 7.50 106
2026 07 28 06  00 03 03.929   -05 00 59.07  .32932 1.2379 126.0 21.2 7.78 106
2026 07 28 07  00 03 09.737   -05 01 41.52  .32929 1.2379 126.0 21.2 8.05 106
2026 07 28 08  00 03 15.540   -05 02 24.00  .32926 1.2380 126.0 21.2 8.33 106
2026 07 28 09  00 03 21.337   -05 03 06.53  .32923 1.2381 126.0 21.2 8.62 106
2026 07 28 10  00 03 27.128   -05 03 49.10  .32920 1.2381 126.1 21.2 8.91 106
2026 07 28 11  00 03 32.913   -05 04 31.71  .32917 1.2382 126.1 21.2 9.20 106
2026 07 28 12  00 03 38.693   -05 05 14.37  .32914 1.2382 126.1 21.2 9.50 106
2026 07 28 13  00 03 44.466   -05 05 57.06  .32911 1.2383 126.1 21.2 9.80 105
2026 07 28 14  00 03 50.234   -05 06 39.80  .32908 1.2383 126.1 21.2 10.1 105
2026 07 28 15  00 03 55.997   -05 07 22.58  .32905 1.2384 126.2 21.2 10.4 105
2026 07 28 16  00 04 01.753   -05 08 05.41  .32902 1.2384 126.2 21.2 10.7 105
2026 07 28 17  00 04 07.503   -05 08 48.27  .32899 1.2385 126.2 21.2 11.1 105
2026 07 28 18  00 04 13.248   -05 09 31.18  .32896 1.2385 126.2 21.2 11.4 105